• Em Portugal
  • Lista de países
  • Para 7 dias
  • Temperatura da água
  • Mapas de satélite
  • Mapa do tempo
  • Widgets de tempo
  • user-avatar
    Iniciar Sessão

    Previsão horária em Campo Grande

    Hoje, 20 Fevereiro, Terça-feira

    Tempo Temperatura Precipitação Vento Pressão Humidade
    00:00 +22°C° 0,1 mm 3 m/s 707 mmHg 92%
    01:00 +22°C° 0,1 mm 3 m/s 707 mmHg 92%
    02:00 +22°C° 0,1 mm 3 m/s 706 mmHg 91%
    03:00 +22°C° 0,3 mm 3 m/s 706 mmHg 92%
    04:00 +22°C° 0,3 mm 3 m/s 706 mmHg 92%
    05:00 +22°C° 0,3 mm 3 m/s 706 mmHg 92%
    06:00 +23°C° 0,7 mm 4 m/s 707 mmHg 90%
    07:00 +25°C° 0,7 mm 5 m/s 708 mmHg 87%
    08:00 +26°C° 0,7 mm 6 m/s 708 mmHg 85%
    09:00 +27°C° 0,7 mm 6 m/s 708 mmHg 82%
    10:00 +27°C° 0,7 mm 6 m/s 708 mmHg 79%
    11:00 +28°C° 0,7 mm 6 m/s 708 mmHg 76%
    12:00 +29°C° 0,6 mm 5 m/s 707 mmHg 76%
    13:00 +29°C° 0,6 mm 5 m/s 707 mmHg 75%
    14:00 +29°C° 0,6 mm 5 m/s 706 mmHg 74%
    15:00 +29°C° 0,2 mm 4 m/s 706 mmHg 77%
    16:00 +28°C° 0,2 mm 3 m/s 706 mmHg 79%
    17:00 +28°C° 0,2 mm 3 m/s 706 mmHg 82%
    18:00 +27°C° 0,3 mm 3 m/s 706 mmHg 85%
    19:00 +26°C° 0,3 mm 2 m/s 707 mmHg 88%
    20:00 +25°C° 0,3 mm 2 m/s 707 mmHg 91%
    21:00 +25°C° 0 mm 2 m/s 707 mmHg 92%
    22:00 +24°C° 0 mm 2 m/s 708 mmHg 92%
    23:00 +24°C° 0 mm 2 m/s 708 mmHg 93%

    Amanhã, 21 Fevereiro, Quarta-feira

    Tempo Temperatura Precipitação Vento Pressão Humidade
    00:00 +24°C° 0,2 mm 2 m/s 708 mmHg 93%
    01:00 +24°C° 0,2 mm 2 m/s 707 mmHg 94%
    02:00 +23°C° 0,2 mm 2 m/s 707 mmHg 94%
    03:00 +23°C° 0,1 mm 2 m/s 707 mmHg 95%
    04:00 +23°C° 0,1 mm 2 m/s 707 mmHg 96%
    05:00 +23°C° 0,1 mm 2 m/s 707 mmHg 96%
    06:00 +24°C° 0,1 mm 2 m/s 708 mmHg 93%
    07:00 +25°C° 0,1 mm 2 m/s 709 mmHg 90%
    08:00 +26°C° 0,1 mm 3 m/s 709 mmHg 87%
    09:00 +27°C° 0,3 mm 3 m/s 709 mmHg 82%
    10:00 +28°C° 0,3 mm 3 m/s 709 mmHg 78%
    11:00 +29°C° 0,3 mm 3 m/s 709 mmHg 73%
    12:00 +30°C° 0,2 mm 3 m/s 709 mmHg 72%
    13:00 +30°C° 0,2 mm 3 m/s 708 mmHg 70%
    14:00 +30°C° 0,2 mm 2 m/s 707 mmHg 69%
    15:00 +30°C° 0,4 mm 2 m/s 707 mmHg 71%
    16:00 +29°C° 0,4 mm 2 m/s 707 mmHg 74%
    17:00 +29°C° 0,4 mm 2 m/s 706 mmHg 77%
    18:00 +28°C° 0,1 mm 2 m/s 707 mmHg 80%
    19:00 +26°C° 0,1 mm 3 m/s 707 mmHg 82%
    20:00 +25°C° 0,1 mm 3 m/s 708 mmHg 85%
    21:00 +24°C° 0 mm 2 m/s 708 mmHg 86%
    22:00 +23°C° 0 mm 2 m/s 708 mmHg 88%
    23:00 +21°C° 0 mm 2 m/s 708 mmHg 89%

    Depois de amanhã, 22 Fevereiro, Quinta-feira

    Tempo Temperatura Precipitação Vento Pressão Humidade
    00:00 +21°C° 0 mm 2 m/s 708 mmHg 89%
    01:00 +22°C° 0 mm 1 m/s 707 mmHg 89%
    02:00 +21°C° 0 mm 1 m/s 707 mmHg 89%
    03:00 +20°C° 0 mm 2 m/s 707 mmHg 89%
    04:00 +20°C° 0 mm 2 m/s 707 mmHg 89%
    05:00 +20°C° 0 mm 2 m/s 707 mmHg 88%
    06:00 +21°C° 0 mm 2 m/s 708 mmHg 84%
    07:00 +22°C° 0 mm 3 m/s 709 mmHg 81%
    08:00 +24°C° 0 mm 3 m/s 709 mmHg 77%
    09:00 +26°C° 0 mm 3 m/s 710 mmHg 71%
    10:00 +27°C° 0 mm 3 m/s 710 mmHg 66%
    11:00 +29°C° 0 mm 3 m/s 710 mmHg 61%
    12:00 +29°C° 0 mm 3 m/s 709 mmHg 59%
    13:00 +30°C° 0 mm 3 m/s 709 mmHg 57%
    14:00 +30°C° 0 mm 3 m/s 708 mmHg 56%
    15:00 +30°C° 0 mm 3 m/s 708 mmHg 61%
    16:00 +29°C° 0 mm 3 m/s 707 mmHg 67%
    17:00 +28°C° 0 mm 3 m/s 707 mmHg 72%
    18:00 +27°C° 0 mm 3 m/s 707 mmHg 78%
    19:00 +25°C° 0 mm 2 m/s 707 mmHg 83%
    20:00 +24°C° 0 mm 2 m/s 708 mmHg 89%
    21:00 +23°C° 0 mm 2 m/s 708 mmHg 91%
    22:00 +23°C° 0 mm 2 m/s 708 mmHg 93%
    23:00 +23°C° 0 mm 2 m/s 708 mmHg 95%

    23 Fevereiro, Sexta-feira

    Tempo Temperatura Precipitação Vento Pressão Humidade
    00:00 +21°C° 0 mm 2 m/s 708 mmHg 95%
    01:00 +21°C° 0 mm 2 m/s 707 mmHg 96%
    02:00 +21°C° 0 mm 2 m/s 707 mmHg 96%
    03:00 +21°C° 0 mm 2 m/s 707 mmHg 96%
    04:00 +21°C° 0 mm 2 m/s 707 mmHg 96%
    05:00 +21°C° 0 mm 2 m/s 707 mmHg 96%
    06:00 +23°C° 0 mm 2 m/s 708 mmHg 91%
    07:00 +25°C° 0 mm 3 m/s 708 mmHg 87%
    08:00 +26°C° 0 mm 3 m/s 709 mmHg 82%
    09:00 +28°C° 0 mm 3 m/s 709 mmHg 75%
    10:00 +29°C° 0 mm 3 m/s 709 mmHg 69%
    11:00 +31°C° 0 mm 3 m/s 709 mmHg 62%
    12:00 +31°C° 0,3 mm 2 m/s 709 mmHg 62%
    13:00 +31°C° 0,3 mm 2 m/s 708 mmHg 62%
    14:00 +31°C° 0,3 mm 2 m/s 707 mmHg 62%
    15:00 +30°C° 0,9 mm 2 m/s 707 mmHg 68%
    16:00 +29°C° 0,9 mm 2 m/s 707 mmHg 74%
    17:00 +28°C° 0,9 mm 2 m/s 707 mmHg 79%
    18:00 +27°C° 0,5 mm 2 m/s 707 mmHg 83%
    19:00 +26°C° 0,5 mm 2 m/s 707 mmHg 87%
    20:00 +24°C° 0,5 mm 2 m/s 708 mmHg 91%
    21:00 +24°C° 0,3 mm 2 m/s 708 mmHg 92%
    22:00 +24°C° 0,3 mm 2 m/s 708 mmHg 93%
    23:00 +24°C° 0,3 mm 2 m/s 708 mmHg 94%

    24 Fevereiro, Sábado

    Tempo Temperatura Precipitação Vento Pressão Humidade
    00:00 +23°C° 0 mm 2 m/s 708 mmHg 94%
    01:00 +23°C° 0 mm 2 m/s 708 mmHg 94%
    02:00 +23°C° 0 mm 2 m/s 707 mmHg 95%
    03:00 +23°C° 0,1 mm 2 m/s 707 mmHg 95%
    04:00 +23°C° 0,1 mm 2 m/s 707 mmHg 95%
    05:00 +22°C° 0,1 mm 1 m/s 708 mmHg 95%
    06:00 +23°C° 0,1 mm 2 m/s 708 mmHg 94%
    07:00 +24°C° 0,1 mm 2 m/s 709 mmHg 92%
    08:00 +25°C° 0,1 mm 2 m/s 709 mmHg 90%
    09:00 +25°C° 0,7 mm 2 m/s 709 mmHg 89%
    10:00 +26°C° 0,7 mm 2 m/s 709 mmHg 87%
    11:00 +26°C° 0,7 mm 3 m/s 709 mmHg 86%
    12:00 +26°C° 0,9 mm 2 m/s 709 mmHg 85%
    13:00 +27°C° 0,9 mm 2 m/s 708 mmHg 84%
    14:00 +27°C° 0,9 mm 2 m/s 707 mmHg 83%
    15:00 +26°C° 0,8 mm 2 m/s 707 mmHg 85%
    16:00 +26°C° 0,8 mm 2 m/s 707 mmHg 87%
    17:00 +26°C° 0,8 mm 2 m/s 707 mmHg 88%
    18:00 +25°C° 0,6 mm 2 m/s 708 mmHg 90%
    19:00 +24°C° 0,6 mm 2 m/s 708 mmHg 92%
    20:00 +23°C° 0,6 mm 2 m/s 708 mmHg 93%
    21:00 +23°C° 0,2 mm 2 m/s 708 mmHg 94%
    22:00 +23°C° 0,2 mm 2 m/s 708 mmHg 94%
    23:00 +23°C° 0,2 mm 2 m/s 709 mmHg 95%

    25 Fevereiro, Domingo

    Tempo Temperatura Precipitação Vento Pressão Humidade
    00:00 +23°C° 0,8 mm 2 m/s 708 mmHg 95%
    01:00 +23°C° 0,8 mm 2 m/s 708 mmHg 95%
    02:00 +23°C° 0,8 mm 2 m/s 708 mmHg 95%
    03:00 +23°C° 1,4 mm 2 m/s 708 mmHg 95%
    04:00 +23°C° 1,4 mm 2 m/s 708 mmHg 95%
    05:00 +23°C° 1,4 mm 2 m/s 708 mmHg 95%
    06:00 +23°C° 2,3 mm 2 m/s 709 mmHg 95%
    07:00 +23°C° 2,3 mm 2 m/s 709 mmHg 95%
    08:00 +23°C° 2,3 mm 2 m/s 710 mmHg 95%
    09:00 +23°C° 1,4 mm 2 m/s 710 mmHg 94%
    10:00 +23°C° 1,4 mm 2 m/s 710 mmHg 94%
    11:00 +23°C° 1,4 mm 2 m/s 710 mmHg 93%
    12:00 +24°C° 0,4 mm 3 m/s 709 mmHg 93%
    13:00 +24°C° 0,4 mm 3 m/s 708 mmHg 93%
    14:00 +24°C° 0,4 mm 3 m/s 708 mmHg 93%
    15:00 +24°C° 0,1 mm 3 m/s 708 mmHg 93%
    16:00 +22°C° 0,1 mm 4 m/s 707 mmHg 92%
    17:00 +22°C° 0,1 mm 4 m/s 707 mmHg 92%
    18:00 +22°C° 0 mm 4 m/s 707 mmHg 92%
    19:00 +22°C° 0 mm 4 m/s 708 mmHg 93%
    20:00 +21°C° 0 mm 4 m/s 708 mmHg 93%
    21:00 +21°C° 0 mm 4 m/s 708 mmHg 93%
    22:00 +21°C° 0 mm 4 m/s 708 mmHg 93%
    23:00 +21°C° 0 mm 4 m/s 709 mmHg 92%
    Mostrar mais